Lancaster, PA

10:38 AM EST on February 21, 2018 (GMT -0500)
Lancaster

Weather History for KLNS - October, 2013

Change the Weather History Date:

Thursday, October 10, 2013

  Actual Average Record
Temperature  
Mean Temperature 54 °F -  
Max Temperature 57 °F 68 °F 82 °F (1997)
Min Temperature 51 °F 44 °F 32 °F (1989)
Degree Days  
Heating Degree Days 11    
Growing Degree Days 4 (Base 50)    
Moisture  
Dew Point 52 °F    
Average Humidity 91    
Maximum Humidity 100    
Minimum Humidity 72    
Precipitation  
Precipitation 2.35 in - - ()
Sea Level Pressure  
Sea Level Pressure 30.11 in    
Wind  
Wind Speed 10 mph (NE)    
Max Wind Speed 20 mph    
Max Gust Speed 24 mph    
Visibility 5 miles    
Events Rain    
Averages and records for this station are not official NWS values.
T = Trace of Precipitation, MM = Missing Value Source: NWS Daily Summary

Daily Weather History Graph

Daily Weather History Graph

Search for Another Location

Airport or City:

Trip Planner

Search our weather history database for the weather conditions in past years. The results will help you decide how hot, cold, wet, or windy it might be!

Date:

Astronomy

Oct. 10, 2013 Rise Set
Actual Time 7:10 AM EDT 6:32 PM EDT
Civil Twilight 6:43 AM EDT 6:59 PM EDT
Nautical Twilight 6:12 AM EDT 7:31 PM EDT
Astronomical Twilight 5:40 AM EDT 8:02 PM EDT
Moon 1:00 PM EDT (10/10) 11:08 PM EDT (10/10)
Length of Visible Light 12h 16m
Length of Day
11h 21m
Waxing Crescent, 35% of the Moon is Illuminated
Oct 10
Waxing Crescent
Oct 11
First Quarter
Oct 18
Full
Oct 26
Last Quarter
Nov 3
New

Hourly Weather History & Observations

Time (EDT) Temp. Dew Point Humidity Pressure Visibility Wind Dir Wind Speed Gust Speed Precip Events Conditions
12:53 AM 54.0 °F 45.0 °F 72% 30.25 in 10.0 mi NNE 8.1 mph - N/A   Overcast
1:53 AM 54.0 °F 46.0 °F 75% 30.24 in 10.0 mi NE 6.9 mph - 0.00 in   Overcast
2:53 AM 54.0 °F 46.0 °F 75% 30.23 in 10.0 mi NE 8.1 mph - 0.00 in   Overcast
3:53 AM 54.0 °F 46.9 °F 77% 30.21 in 10.0 mi NE 8.1 mph - 0.00 in   Mostly Cloudy
4:53 AM 55.0 °F 46.9 °F 74% 30.20 in 10.0 mi NE 9.2 mph - N/A   Overcast
5:53 AM 52.0 °F 46.9 °F 83% 30.20 in 8.0 mi NE 9.2 mph - 0.05 in Rain Rain
6:53 AM 51.1 °F 46.9 °F 86% 30.19 in 10.0 mi NE 9.2 mph - 0.03 in Rain Light Rain
7:53 AM 51.1 °F 46.9 °F 86% 30.20 in 8.0 mi NE 8.1 mph - 0.02 in Rain Light Rain
8:53 AM 52.0 °F 46.9 °F 83% 30.20 in 10.0 mi NE 11.5 mph - 0.00 in   Overcast
9:25 AM 51.8 °F 48.2 °F 88% 30.19 in 10.0 mi NE 9.2 mph - 0.00 in   Overcast
9:43 AM 51.8 °F 48.2 °F 88% 30.19 in 10.0 mi NE 8.1 mph - 0.00 in Rain Light Rain
9:53 AM 52.0 °F 48.0 °F 86% 30.20 in 10.0 mi NE 10.4 mph - 0.00 in Rain Light Rain
10:23 AM 53.6 °F 50.0 °F 88% 30.19 in 7.0 mi NE 6.9 mph - 0.02 in Rain Light Rain
10:53 AM 54.0 °F 50.0 °F 86% 30.18 in 10.0 mi NE 10.4 mph - 0.02 in   Overcast
11:03 AM 53.6 °F 51.8 °F 94% 30.18 in 10.0 mi NE 9.2 mph - N/A   Overcast
11:53 AM 54.0 °F 51.1 °F 90% 30.17 in 10.0 mi ENE 9.2 mph - 0.00 in Rain Light Rain
12:53 PM 54.0 °F 52.0 °F 93% 30.15 in 5.0 mi ENE 5.8 mph - 0.06 in Rain Rain
1:10 PM 53.6 °F 51.8 °F 94% 30.14 in 2.0 mi NNE 6.9 mph - 0.07 in Rain Heavy Rain
1:22 PM 53.6 °F 51.8 °F 94% 30.13 in 2.5 mi NE 6.9 mph - 0.11 in Rain Heavy Rain
1:46 PM 53.6 °F 51.8 °F 94% 30.13 in 1.8 mi NE 10.4 mph - 0.18 in Rain Light Rain
1:49 PM 53.6 °F 51.8 °F 94% 30.12 in 3.0 mi NE 10.4 mph - 0.18 in Rain Light Rain
1:53 PM 54.0 °F 53.1 °F 97% 30.12 in 4.0 mi NNE 11.5 mph - 0.19 in Rain Light Rain
2:10 PM 55.4 °F 53.6 °F 94% 30.11 in 2.5 mi NE 9.2 mph - 0.01 in Rain Rain
2:17 PM 55.4 °F 53.6 °F 94% 30.12 in 1.8 mi NE 6.9 mph - 0.03 in Rain Heavy Rain
2:23 PM 55.4 °F 53.6 °F 94% 30.12 in 1.8 mi ENE 8.1 mph - 0.05 in Rain Rain
2:27 PM 55.4 °F 53.6 °F 94% 30.12 in 2.0 mi NE 9.2 mph - 0.05 in Rain Light Rain
2:30 PM 55.4 °F 53.6 °F 94% 30.11 in 3.0 mi NE 9.2 mph - 0.05 in Rain Light Rain
2:41 PM 55.4 °F 53.6 °F 94% 30.11 in 7.0 mi NNE 10.4 mph - 0.05 in Rain Light Rain
2:53 PM 55.0 °F 53.1 °F 93% 30.11 in 5.0 mi NNE 9.2 mph - 0.06 in Rain Light Rain
3:53 PM 55.9 °F 54.0 °F 93% 30.09 in 4.0 mi NNE 10.4 mph - 0.03 in Rain Rain
4:17 PM 55.4 °F 53.6 °F 94% 30.08 in 4.0 mi NNE 8.1 mph - 0.02 in Rain Light Rain
4:21 PM 55.4 °F 53.6 °F 94% 30.08 in 2.5 mi NNE 8.1 mph - 0.03 in Rain Rain
4:26 PM 55.4 °F 53.6 °F 94% 30.08 in 1.8 mi NNE 8.1 mph - 0.04 in Rain Rain
4:50 PM 55.4 °F 53.6 °F 94% 30.07 in 1.8 mi NNE 12.7 mph - 0.15 in Rain Heavy Rain
4:53 PM 55.0 °F 54.0 °F 96% 30.07 in 1.8 mi NNE 13.8 mph 21.9 mph 0.17 in Rain Heavy Rain
5:02 PM 55.4 °F 53.6 °F 94% 30.06 in 2.5 mi NNE 17.3 mph 21.9 mph 0.03 in Rain Heavy Rain
5:16 PM 55.4 °F 53.6 °F 94% 30.05 in 1.2 mi NNE 19.6 mph 24.2 mph 0.15 in Rain Heavy Rain
5:53 PM 55.9 °F 55.0 °F 97% 30.06 in 1.5 mi NE 16.1 mph 23.0 mph 0.44 in Rain Heavy Rain
5:56 PM 57.2 °F 55.4 °F 94% 30.06 in 1.8 mi NE 13.8 mph 23.0 mph 0.00 in Rain Heavy Rain
6:27 PM 55.4 °F 53.6 °F 94% 30.05 in 2.5 mi NE 16.1 mph - 0.13 in Rain Rain
6:53 PM 55.9 °F 55.0 °F 97% 30.07 in 2.0 mi NNE 9.2 mph 18.4 mph 0.22 in Rain Rain
7:10 PM 55.4 °F 55.4 °F 100% 30.08 in 1.8 mi NNE 8.1 mph - 0.11 in Rain Heavy Rain
7:29 PM 55.4 °F 55.4 °F 100% 30.07 in 2.0 mi NNE 13.8 mph - 0.24 in Rain Heavy Rain
7:37 PM 57.2 °F 55.4 °F 94% 30.06 in 2.0 mi NE 16.1 mph 24.2 mph 0.28 in Rain Heavy Rain
7:53 PM 57.0 °F 55.0 °F 93% 30.06 in 2.0 mi NE 18.4 mph 23.0 mph 0.33 in Rain Heavy Rain
8:23 PM 57.2 °F 55.4 °F 94% 30.06 in 3.0 mi NE 13.8 mph - 0.07 in Rain Light Rain
8:33 PM 57.2 °F 55.4 °F 94% 30.06 in 1.5 mi NE 13.8 mph - 0.18 in Rain Heavy Rain
8:44 PM 57.2 °F 55.4 °F 94% 30.06 in 3.0 mi NE 11.5 mph 19.6 mph 0.23 in Rain Rain
8:53 PM 57.0 °F 55.0 °F 93% 30.06 in 4.0 mi NE 12.7 mph - 0.24 in Rain Rain
9:06 PM 57.2 °F 55.4 °F 94% 30.06 in 2.5 mi NE 11.5 mph 20.7 mph 0.02 in Rain Light Rain
9:43 PM 57.2 °F 55.4 °F 94% 30.05 in 2.5 mi NE 15.0 mph 21.9 mph 0.06 in Rain Rain
9:53 PM 57.0 °F 55.0 °F 93% 30.05 in 2.5 mi NE 17.3 mph 23.0 mph 0.08 in Rain Light Rain
10:21 PM 57.2 °F 55.4 °F 94% 30.04 in 4.0 mi NNE 13.8 mph 20.7 mph 0.12 in Rain Rain
10:53 PM 55.9 °F 54.0 °F 93% 30.04 in 2.5 mi NNE 12.7 mph - 0.20 in Rain Heavy Rain
11:12 PM 55.4 °F 53.6 °F 94% 30.03 in 3.0 mi NE 10.4 mph - 0.07 in Rain Rain
11:53 PM 55.9 °F 54.0 °F 93% 30.02 in 2.5 mi NNE 9.2 mph - 0.21 in Rain Rain